Weather History for KLFT - August, 2014

Change the Weather History Date:

Monday, August 18, 2014

  Actual Average Record
Temperature  
Mean Temperature 84 °F 84 °F  
Max Temperature 94 °F 93 °F 102 °F (2011)
Min Temperature 74 °F 75 °F 66 °F (1992)
Cooling Degree Days 19 19  
Month to date cooling degree days 317 342  
Year to date cooling degree days 1819 2026  
Since 1 June cooling degree days 1350 1412  
Growing Degree Days 33 (Base 50)    
Moisture  
Dew Point 75 °F    
Average Humidity 76    
Maximum Humidity 100    
Minimum Humidity 52    
Precipitation  
Precipitation 0.00 in 0.15 in 2.52 in (2002)
Month to date precipitation 4.99 2.67  
Year to date precipitation 42.60 38.67  
Sea Level Pressure  
Sea Level Pressure 29.98 in    
Wind  
Wind Speed 7 mph (SW)    
Max Wind Speed 17 mph    
Max Gust Speed 22 mph    
Visibility 10 miles    
Events      
T = Trace of Precipitation, MM = Missing Value Source: NWS Daily Summary

Daily Weather History Graph

Daily Weather History Graph

Search for Another Location

Airport or City:

Trip Planner

Search our weather history database for the weather conditions in past years. The results will help you decide how hot, cold, wet, or windy it might be!

Date:

Astronomy

Aug. 18, 2014 Rise Set
Actual Time 6:36 AM CDT 7:46 PM CDT
Civil Twilight 6:11 AM CDT 8:11 PM CDT
Nautical Twilight 5:42 AM CDT 8:40 PM CDT
Astronomical Twilight 5:11 AM CDT 9:11 PM CDT
Moon 12:49 AM CDT (8/18) 2:43 PM CDT (8/18)
Length of Visible Light 13h 59m
Length of Day
13h 09m
Last Quarter, 38% of the Moon is Illuminated
Aug 18
Last Quarter
Aug 25
New
Sep 2
First Quarter
Sep 8
Full
Sep 15
Last Quarter

Hourly Weather History & Observations

Time (CDT) Temp. Heat Index Dew Point Humidity Pressure Visibility Wind Dir Wind Speed Gust Speed Precip Events Conditions
12:53 AM 77.0 °F - 73.9 °F 90% 29.99 in 10.0 mi SSW 3.5 mph - N/A   Clear
1:53 AM 75.2 °F - 73.4 °F 94% 29.99 in 10.0 mi Calm Calm - N/A   Clear
2:53 AM 75.9 °F - 73.9 °F 94% 29.99 in 10.0 mi SSE 3.5 mph - N/A   Clear
3:53 AM 75.0 °F - 73.9 °F 96% 29.99 in 10.0 mi Calm Calm - N/A   Clear
4:53 AM 73.9 °F - 73.0 °F 97% 29.98 in 10.0 mi Calm Calm - N/A   Clear
5:53 AM 77.0 °F - 75.0 °F 94% 29.99 in 10.0 mi South 3.5 mph - N/A   Clear
6:24 AM 78.1 °F - 75.9 °F 93% 29.99 in 10.0 mi SSW 3.5 mph - N/A   Mostly Cloudy
6:49 AM 78.8 °F - 75.2 °F 89% 30.00 in 10.0 mi SSW 4.6 mph - N/A   Scattered Clouds
6:53 AM 78.1 °F - 75.9 °F 93% 30.00 in 10.0 mi SSW 4.6 mph - N/A   Scattered Clouds
7:53 AM 81.0 °F 87.9 °F 77.0 °F 88% 30.01 in 10.0 mi SSW 4.6 mph - N/A   Clear
8:53 AM 84.9 °F 96.6 °F 78.1 °F 80% 30.02 in 10.0 mi SSW 10.4 mph - N/A   Clear
9:53 AM 87.1 °F 98.8 °F 77.0 °F 72% 30.02 in 10.0 mi WSW 10.4 mph - N/A   Partly Cloudy
10:35 AM 88.0 °F 98.5 °F 75.9 °F 67% 30.02 in 10.0 mi SW 8.1 mph - N/A   Mostly Cloudy
10:53 AM 89.1 °F 101.4 °F 77.0 °F 67% 30.02 in 10.0 mi SW 8.1 mph - N/A   Mostly Cloudy
11:08 AM 90.0 °F 101.3 °F 75.9 °F 63% 30.02 in 10.0 mi SSW 12.7 mph - N/A   Mostly Cloudy
11:53 AM 90.0 °F 101.3 °F 75.9 °F 63% 30.01 in 10.0 mi WSW 11.5 mph 17.3 mph N/A   Mostly Cloudy
12:53 PM 91.0 °F 98.2 °F 72.0 °F 53% 30.00 in 10.0 mi SW 11.5 mph - N/A   Partly Cloudy
1:53 PM 91.9 °F 101.3 °F 73.9 °F 55% 29.97 in 10.0 mi SW 12.7 mph - N/A   Partly Cloudy
2:53 PM 93.0 °F 101.9 °F 73.0 °F 52% 29.96 in 10.0 mi SW 11.5 mph - N/A   Clear
3:53 PM 93.0 °F 103.2 °F 73.9 °F 54% 29.94 in 10.0 mi WSW 11.5 mph - N/A   Scattered Clouds
4:53 PM 91.0 °F 100.4 °F 73.9 °F 57% 29.93 in 10.0 mi SW 12.7 mph - N/A   Scattered Clouds
5:53 PM 91.0 °F 101.6 °F 75.0 °F 59% 29.94 in 10.0 mi SW 13.8 mph - N/A   Mostly Cloudy
6:53 PM 88.0 °F 97.5 °F 75.0 °F 65% 29.94 in 10.0 mi SSW 11.5 mph - N/A   Clear
7:53 PM 84.9 °F 93.3 °F 75.0 °F 72% 29.93 in 10.0 mi SSW 6.9 mph - N/A   Clear
8:53 PM 84.0 °F 91.9 °F 75.0 °F 74% 29.95 in 10.0 mi SSW 5.8 mph - N/A   Clear
9:53 PM 82.0 °F 88.6 °F 75.0 °F 79% 29.96 in 10.0 mi SSW 5.8 mph - N/A   Clear
10:18 PM 82.0 °F 88.6 °F 75.0 °F 79% 29.97 in 10.0 mi SW 4.6 mph - N/A   Mostly Cloudy
10:34 PM 81.0 °F 86.7 °F 75.0 °F 82% 29.96 in 10.0 mi SSW 5.8 mph - N/A   Scattered Clouds
10:53 PM 80.6 °F 86.2 °F 75.2 °F 84% 29.96 in 10.0 mi SSW 5.8 mph - N/A   Clear
11:53 PM 80.1 °F 85.4 °F 75.9 °F 87% 29.96 in 10.0 mi SSW 5.8 mph - N/A   Clear